Location: ????
(30.2663°N, 31.2484°E)
Time: 11:04:54
(UTC+00:00)

CZ-2C R/B - Pass Details

Date: 27 September 2022
Orbit: 784 x 870 km, 98.3° (Epoch: 26 November)

Event Time Altitude Azimuth Distance (km) Brightness Sun altitude
Rises 03:11:12 0° 201° (SSW) 3,257 5.5 -8.3°
Reaches altitude 10° 03:14:03 10° 217° (SW) 2,336 4.6 -7.7°
Maximum altitude 03:17:50 21° 265° (W) 1,730 3.7 -6.9°
Drops below altitude 10° 03:21:40 10° 312° (NW) 2,365 4.6 -6.1°
Sets 03:24:36 0° 329° (NNW) 3,311 5.5 -5.5°
